GFSNGP_2pvu_pres_018.txt.gz
Presure
226 224 216 216 214 209 200 207 208 220 220 244 226 202 200 202 207 200 191 193 195 192 186 184 186 191 195 205 194 191 198 187 185 192 196 207 211 198 213 220 233 214 209 222
217 214 209 206 208 209 208 210 217 216 243 223 196 198 198 198 190 195 196 195 196 193 191 190 192 203 190 187 190 187 191 191 189 192 208 209 205 210 217 245 218 205 228 234
219 209 203 209 217 205 211 226 227 255 228 204 191 191 191 189 190 195 193 189 191 193 193 205 210 203 197 190 185 194 195 182 207 206 201 205 211 216 234 221 221 224 233 241
215 211 207 215 196 207 206 204 254 226 199 199 196 196 196 197 199 197 193 195 197 200 202 203 200 194 192 180 196 201 196 204 203 197 205 215 202 225 221 220 225 229 239 244
222 207 205 213 205 206 204 207 218 204 202 200 197 197 195 192 192 191 194 198 199 199 200 197 192 199 183 193 199 202 205 196 197 206 213 215 223 244 220 227 235 240 246 253
216 211 201 199 206 210 168 203 208 199 198 197 195 194 194 194 197 198 199 199 195 197 199 192 185 191 194 196 197 203 205 198 209 212 215 221 247 222 226 237 240 247 248 261
205 205 202 206 200 160 204 196 198 201 197 197 197 199 199 196 195 195 197 197 203 200 191 191 196 199 195 204 197 210 202 213 211 196 221 241 219 227 235 240 246 248 259 268
200 153 201 202 163 197 202 203 195 196 197 197 198 200 199 199 201 199 194 199 200 188 193 194 191 199 203 193 211 205 212 211 216 219 249 219 227 229 239 246 244 257 263 260
206 208 97 189 200 199 198 196 194 194 192 189 190 192 196 195 195 202 196 197 195 198 189 192 200 205 194 211 206 209 213 217 221 243 225 227 229 240 243 242 255 253 257 272
205 210 205 198 199 193 198 199 197 196 194 197 197 197 195 191 191 196 199 199 192 197 194 200 202 195 210 210 208 214 217 224 246 221 230 214 239 243 241 252 249 264 272 313
201 210 162 197 202 200 198 196 195 199 199 199 197 191 191 193 197 200 195 191 203 192 203 197 201 209 205 209 213 220 230 251 220 230 235 240 245 241 248 256 266 269 298 403
201 105 208 204 196 195 197 198 194 198 198 197 192 194 195 184 194 198 197 205 192 203 198 208 210 194 214 210 223 241 233 224 228 237 244 244 242 246 256 269 272 282 409 402
100 206 202 203 209 206 196 191 193 198 195 193 193 192 194 200 202 199 196 203 208 196 208 208 206 217 202 227 253 223 226 226 241 247 243 244 251 260 274 273 296 404 400 386
213 208 204 203 205 204 201 202 203 202 202 201 202 203 203 204 191 205 204 206 204 212 215 217 217 227 251 241 225 225 235 246 247 241 246 256 263 275 283 307 394 399 384 373
223 220 210 206 204 202 202 201 202 201 203 201 204 207 210 211 211 214 205 212 214 210 219 221 247 243 224 229 222 242 252 245 245 252 260 266 275 284 316 404 401 394 382 365
224 225 221 217 213 211 210 211 210 205 207 208 208 200 204 213 210 212 217 206 221 223 235 231 222 231 231 238 244 247 255 253 258 262 267 277 288 417 414 403 397 384 373 357
229 228 224 222 221 216 213 213 215 211 208 198 209 210 212 215 219 207 220 224 237 230 221 229 236 228 248 242 246 257 254 261 260 276 280 302 419 413 405 394 383 373 371 388
227 225 223 224 223 223 220 216 216 215 216 219 215 219 222 217 224 227 235 242 224 215 235 222 241 247 247 252 260 260 269 267 278 285 364 426 414 403 392 379 375 394 384 383
225 225 224 224 224 224 222 219 219 219 220 221 218 219 226 227 240 239 226 207 233 234 229 242 248 253 255 262 264 266 273 283 296 429 426 414 401 385 377 388 389 381 379 381
230 227 224 224 227 226 225 225 225 220 216 223 226 227 246 228 226 205 231 235 219 236 243 249 262 259 262 269 266 281 288 310 439 426 411 394 383 392 395 385 388 377 402 387
234 234 229 227 225 224 225 224 226 229 226 226 237 225 225 205 235 238 236 244 247 245 260 257 263 266 265 272 279 293 442 429 411 396 392 397 395 387 394 385 388 390 391 376
230 232 228 230 233 232 227 226 228 241 232 227 221 210 239 239 235 244 249 245 262 255 258 265 269 269 278 283 294 412 412 402 399 407 400 393 429 447 432 419 406 401 393 396
236 235 233 233 231 232 233 232 227 223 228 229 240 240 238 238 249 247 260 258 256 264 266 272 268 280 289 296 415 408 414 408 395 395 413 447 448 438 420 402 391 381 370 362
238 235 233 233 234 233 233 236 242 241 239 241 225 246 250 246 259 250 259 264 266 267 270 279 282 293 312 411 410 412 393 399 393 421 441 437 411 396 389 382 454 447 430 410
245 244 243 243 243 243 239 239 242 242 242 252 251 250 258 246 261 268 268 271 271 277 281 291 304 414 406 414 395 400 398 389 411 438 425 410 389 396 454 419 389 371 361 355
247 247 246 248 248 250 253 255 255 255 252 255 260 260 267 271 272 272 270 279 280 292 295 323 407 418 398 399 413 482 469 411 431 418 410 381 469 422 381 362 366 534 537 554
262 264 267 267 264 261 259 257 256 258 260 268 273 261 274 274 276 279 279 289 297 319 403 411 407 395 384 400 380 481 455 400 401 399 376 465 354 353 369 370 516 506 502 506

GFSNGP_2pvu_pres_021.txt.gz
Presure
230 208 232 233 231 226 225 227 217 202 214 215 224 206 199 225 221 212 200 196 198 198 192 191 192 191 187 187 190 189 192 194 192 191 185 183 192 200 205 192 205 208 218 216
236 212 227 222 217 221 211 210 207 215 208 206 208 216 237 223 208 197 193 192 190 190 193 192 188 187 190 188 186 194 197 192 190 190 185 192 205 202 193 207 210 218 218 240
238 230 222 218 218 215 213 213 215 211 225 219 227 249 233 217 191 190 194 197 198 203 200 193 191 192 193 197 197 193 191 191 196 194 192 204 203 195 207 213 216 220 245 215
242 225 211 222 215 218 218 210 204 200 203 218 258 242 209 198 201 202 202 200 195 193 192 192 193 196 200 204 202 190 188 193 193 200 204 201 204 207 214 213 224 249 219 226
246 227 235 241 215 208 214 199 192 206 203 211 251 210 201 203 197 196 194 193 193 196 193 194 195 195 197 199 190 185 193 195 193 205 200 209 207 216 209 226 250 221 225 236
253 234 219 216 207 203 206 184 200 214 210 203 238 209 203 200 197 197 197 199 197 198 199 199 199 199 199 188 188 198 207 190 203 199 208 203 215 206 223 249 221 231 230 245
258 234 220 216 208 202 202 206 205 204 219 207 197 195 194 198 200 199 199 196 196 198 195 195 198 200 204 194 192 208 203 200 200 209 202 215 208 224 253 221 225 230 245 237
252 209 221 217 208 202 198 207 209 202 201 197 200 197 196 195 195 192 196 198 198 195 192 193 197 200 193 200 198 206 199 202 211 212 215 215 228 252 221 226 235 246 241 243
251 186 228 218 216 211 208 202 202 203 200 199 202 201 200 198 195 200 198 196 193 195 194 189 194 200 204 194 204 200 203 210 209 216 218 238 232 222 226 237 241 245 245 247
249 221 211 220 213 206 204 202 202 206 206 203 202 202 201 202 202 201 198 199 194 194 193 200 204 182 203 206 206 205 212 209 216 221 248 215 228 225 240 240 242 248 250 257
244 235 215 219 215 209 187 203 206 204 197 194 197 197 196 193 192 194 200 197 196 200 203 203 190 204 213 212 208 213 214 218 230 233 217 228 222 243 238 249 253 255 258 277
245 237 228 223 216 138 210 202 204 208 207 207 209 210 204 201 201 200 201 203 201 201 201 202 209 209 205 212 211 217 221 237 220 220 225 228 244 249 253 256 258 261 277 285
242 237 227 224 125 222 213 209 204 203 202 200 201 200 201 201 200 201 197 199 200 202 202 210 205 205 217 222 220 220 242 221 226 227 242 241 251 258 260 255 262 269 285 426
235 220 223 115 224 224 219 215 212 209 204 204 204 203 202 200 203 205 208 209 210 208 211 215 218 219 221 221 228 229 218 230 230 215 240 256 254 260 262 271 285 284 434 424
202 197 230 230 229 226 223 223 225 224 220 213 211 210 207 212 213 215 215 215 216 217 220 220 216 221 221 241 222 231 228 236 225 241 259 253 264 266 275 285 291 449 441 417
242 237 233 226 230 231 230 225 223 224 224 221 220 221 223 225 225 222 219 221 220 222 224 216 224 228 230 219 236 234 242 244 246 260 254 265 270 277 288 299 447 424 406 390
212 197 232 236 211 231 234 234 229 224 222 218 217 220 222 223 223 224 224 226 231 220 223 226 233 226 217 239 231 247 245 250 255 261 270 274 281 291 310 427 415 407 404 400
214 220 218 197 216 224 233 235 229 226 225 224 225 225 225 226 227 226 226 219 223 229 226 233 223 240 240 239 251 244 252 260 268 273 278 282 292 337 421 425 422 410 397 390
222 214 195 192 221 220 213 231 231 224 227 228 229 227 224 225 227 225 232 233 229 237 225 239 243 233 238 254 248 258 262 272 277 280 286 295 400 418 423 409 400 402 427 447
228 209 220 230 233 234 233 226 223 219 222 224 226 228 229 227 232 236 236 238 232 232 249 239 235 257 250 253 263 266 277 280 277 290 301 428 426 417 406 409 398 435 449 441
226 229 220 222 222 226 232 233 234 236 237 237 237 234 235 238 237 239 236 242 244 244 246 256 258 252 260 262 276 277 281 278 292 304 437 422 413 406 471 432 419 437 419 400
232 233 230 221 224 227 223 223 226 237 249 248 246 245 243 245 246 248 250 248 241 254 259 261 259 264 272 279 276 281 289 299 341 438 416 432 397 429 452 428 428 420 395 405
231 228 224 226 233 239 241 237 241 248 244 247 252 252 251 251 249 253 257 255 261 265 264 265 273 280 268 278 283 294 306 414 425 411 398 402 378 469 409 431 398 383 419 402
225 226 230 233 239 249 246 245 251 253 252 252 255 260 260 259 257 264 275 269 266 266 258 275 266 271 282 285 301 358 429 423 402 385 391 381 367 395 441 383 373 356 355 368
232 237 247 246 248 249 254 252 247 246 241 242 251 259 272 272 268 264 266 260 254 277 266 270 278 280 294 313 412 431 409 399 385 364 387 362 364 398 402 366 360 348 366 359
243 245 245 243 245 242 240 241 251 259 266 273 269 265 264 266 264 247 256 257 267 275 272 282 287 307 379 422 406 413 379 392 365 414 382 353 366 387 383 369 358 345 367 398
246 245 244 250 252 252 275 275 271 269 266 269 271 274 276 278 285 280 277 277 273 287 289 306 329 427 416 400 381 391 375 387 359 378 375 353 385 437 404 382 372 387 357 419

GFSNGP_2pvu_pres_027.txt.gz
Presure
197 208 191 186 182 265 244 240 234 275 249 225 212 209 206 210 238 222 221 230 222 204 219 199 229 222 219 207 205 200 198 198 201 196 195 194 196 202 200 199 189 195 194 200
191 208 169 173 191 180 257 238 222 220 222 227 220 220 218 223 216 207 220 223 211 225 209 218 225 219 205 201 197 195 199 198 194 194 194 197 193 195 193 188 192 192 202 187
161 193 208 197 192 224 251 240 220 204 208 217 214 211 203 209 203 200 216 235 224 217 227 235 225 217 202 200 198 199 196 193 195 193 190 193 194 194 194 194 194 202 181 204
222 193 205 224 193 209 223 246 224 215 215 209 207 204 207 207 207 203 201 200 207 239 249 246 226 200 198 198 195 193 194 190 187 194 193 193 194 198 192 196 203 202 204 210
222 176 196 216 212 204 210 249 240 225 212 213 209 208 202 207 211 200 198 205 211 205 212 238 203 197 192 195 195 191 191 193 193 193 195 199 198 195 199 197 205 216 210 213
208 202 186 177 227 196 190 188 264 244 243 226 216 213 204 204 204 207 210 202 245 235 227 205 202 200 193 192 194 194 193 193 195 191 194 196 195 199 197 211 216 218 215 215
225 201 209 219 221 191 186 225 230 254 232 212 207 205 209 209 204 202 205 209 201 197 199 200 197 197 197 196 196 198 193 192 192 200 198 198 202 205 215 219 220 218 216 223
210 211 213 219 193 209 199 191 242 260 248 188 228 223 219 214 202 211 208 203 202 202 200 198 198 198 197 194 195 194 199 201 200 203 204 209 217 218 224 207 217 219 221 214
210 205 207 218 210 229 191 193 179 243 254 245 188 187 220 214 219 215 210 210 209 207 206 206 204 204 207 208 202 202 203 204 205 213 216 218 219 224 222 218 222 217 222 226
204 193 215 199 211 217 212 191 222 249 243 256 245 235 234 228 220 216 216 210 207 207 210 210 209 209 207 211 215 215 217 219 220 218 216 218 222 218 217 221 222 226 228 227
198 195 224 225 208 214 213 202 210 232 238 249 245 244 223 216 209 227 224 223 221 219 218 218 221 223 222 218 218 221 221 222 221 222 223 222 217 224 225 227 231 231 231 242
207 230 215 205 202 210 200 227 211 223 240 244 238 236 240 238 233 207 203 218 222 223 222 220 221 224 228 228 228 224 223 219 218 219 223 226 227 231 236 239 239 243 258 270
216 208 212 215 218 206 197 232 246 238 225 237 243 234 232 234 233 231 230 221 220 225 229 226 225 223 219 217 212 212 221 225 227 235 238 240 243 244 242 248 254 262 275 269
213 215 208 206 219 221 190 219 210 229 229 237 239 242 237 191 211 228 227 230 219 216 203 212 210 216 224 232 232 229 226 217 217 227 238 242 248 251 255 261 273 268 269 255
208 218 212 213 221 225 226 216 212 237 238 233 233 207 231 225 224 206 205 202 194 205 207 217 227 219 216 222 232 235 235 234 238 240 246 252 258 265 268 270 271 275 265 268
216 203 219 214 224 228 223 233 243 239 229 234 228 229 228 228 222 222 221 216 223 217 227 235 223 215 226 233 234 233 238 243 248 249 259 271 267 272 265 258 271 264 264 264
197 264 223 207 234 217 248 237 235 237 234 233 222 219 217 224 230 231 225 223 216 217 231 234 221 222 226 235 242 240 246 249 257 271 271 267 266 268 274 259 262 262 277 308
221 200 210 230 233 243 236 250 228 228 238 236 224 222 220 219 226 230 230 225 216 233 236 226 226 232 238 247 244 245 252 259 261 262 268 269 263 255 259 260 260 297 310 326
231 207 244 253 219 230 230 242 248 235 229 234 238 239 235 227 234 232 221 229 241 232 240 236 238 242 251 245 250 254 252 255 260 274 280 256 253 262 264 264 301 316 328 419
239 255 228 193 178 215 230 236 227 239 234 230 227 226 230 234 241 246 230 233 228 235 233 241 244 245 246 248 242 248 250 254 285 273 256 261 262 263 281 305 317 361 414 413
179 178 178 179 181 208 238 228 228 231 227 235 231 240 246 234 243 229 234 231 237 239 241 243 241 247 242 243 247 247 253 259 258 265 264 260 276 293 307 319 412 409 396 405
202 234 219 224 225 233 228 227 233 239 243 257 246 245 238 228 234 237 234 236 238 240 242 244 245 243 248 253 255 255 259 266 259 255 276 289 300 312 350 415 407 390 392 395
227 232 234 236 231 220 250 258 228 251 233 246 224 227 233 245 231 229 236 240 245 243 243 241 242 254 255 264 255 259 259 255 278 296 303 306 316 398 414 407 387 375 390 384
224 223 230 237 242 237 208 218 221 220 228 227 225 241 234 233 246 262 255 245 243 244 242 243 260 264 260 265 255 254 278 293 308 310 308 344 415 413 407 385 366 385 384 379
245 242 237 244 226 232 236 232 250 242 231 234 237 241 240 257 262 249 245 243 242 251 256 266 264 257 252 256 278 294 312 312 319 339 354 414 409 394 365 331 383 380 410 438
235 231 235 227 222 240 230 240 232 239 242 242 243 250 250 249 247 249 249 255 262 271 263 253 256 270 278 289 320 317 328 349 352 341 409 400 378 364 376 382 380 402 443 428
226 224 225 235 240 236 237 244 247 239 248 257 248 252 255 250 252 254 253 264 263 263 270 279 290 293 301 326 343 352 389 407 412 400 391 375 380 379 379 382 399 453 435 418

GFSNGP_2pvu_pres_030.txt.gz
Presure
193 207 190 187 213 192 207 180 209 251 230 232 229 250 232 221 218 211 228 212 222 247 207 212 214 221 209 210 196 212 223 219 211 195 195 197 198 195 193 192 191 189 194 190
175 205 179 198 216 215 166 184 194 261 233 225 219 221 261 230 223 227 219 212 217 202 211 209 205 128 211 210 211 229 221 223 202 198 196 197 191 192 190 185 195 191 193 196
196 192 189 209 194 173 211 221 201 192 245 227 220 208 211 211 210 208 205 223 216 212 211 211 206 203 210 215 223 225 226 216 194 195 193 193 193 190 193 193 191 196 193 200
202 196 193 207 188 200 209 223 203 203 251 242 229 218 205 197 209 207 204 210 212 214 203 197 200 203 202 241 237 232 225 196 194 192 193 193 192 197 194 198 197 194 201 196
199 189 201 177 216 185 206 226 204 197 193 182 201 231 218 209 209 205 208 208 202 204 204 206 211 203 206 205 203 226 199 195 194 193 197 199 195 197 195 191 203 193 199 202
203 190 190 213 184 212 197 176 189 188 189 196 227 238 251 239 229 216 212 196 197 205 195 194 200 205 240 204 202 198 195 196 198 196 195 196 197 195 199 194 201 204 206 216
169 175 174 208 202 189 201 211 229 192 192 180 234 242 239 223 189 207 207 207 210 206 200 202 204 207 208 195 191 190 192 193 195 197 200 197 201 200 204 209 215 218 226 220
178 204 209 192 213 200 216 210 209 219 191 194 205 225 250 245 236 219 223 218 213 217 212 211 208 207 207 206 204 203 202 203 201 201 205 206 214 218 217 226 229 222 224 224
189 195 196 202 198 189 219 207 209 210 199 197 192 220 219 246 250 242 235 192 220 215 213 211 215 214 209 206 208 208 209 212 214 219 219 214 230 232 220 220 218 224 224 225
203 198 193 204 200 199 208 197 222 207 220 218 212 214 213 248 249 250 245 237 232 224 189 224 221 223 222 221 221 216 218 219 221 230 231 216 214 224 228 222 224 224 224 237
205 218 181 209 181 180 197 204 221 195 211 208 198 231 217 204 238 240 244 241 243 242 235 232 227 223 224 227 218 219 228 198 217 215 222 222 213 205 223 228 231 237 240 239
204 224 197 221 191 190 198 217 192 218 211 214 217 208 212 248 227 235 248 243 234 230 232 191 192 227 214 209 230 204 205 205 210 231 228 206 213 223 219 238 240 237 253 269
215 222 226 199 192 187 209 204 205 211 210 205 221 233 231 211 233 244 235 236 234 235 232 231 222 196 184 217 218 223 224 224 234 234 223 217 217 232 245 243 240 251 252 258
225 218 208 203 197 199 207 216 211 213 211 221 213 256 211 236 244 236 243 238 236 238 236 236 231 233 234 228 227 224 214 227 226 230 234 228 235 245 240 248 247 251 252 254
203 202 203 209 213 211 211 204 207 214 221 220 221 216 214 246 235 239 237 238 237 233 220 212 213 230 233 232 226 226 233 221 232 236 228 242 241 245 248 254 254 257 255 260
222 213 208 201 205 207 204 204 219 216 222 218 225 239 244 240 241 233 234 232 237 242 218 237 230 239 239 242 234 228 229 232 237 240 243 242 246 250 252 254 260 252 252 254
213 204 205 209 207 200 215 216 204 228 234 226 194 252 224 245 247 244 249 244 229 233 246 225 239 250 238 236 234 237 239 239 237 242 249 245 243 248 251 261 257 258 251 257
212 210 207 206 196 210 214 219 216 217 226 207 250 242 227 225 248 239 225 223 235 246 224 256 246 233 236 244 237 235 242 250 256 250 239 243 244 253 264 259 252 250 264 287
196 200 206 189 203 205 213 185 206 216 233 243 205 245 237 230 222 225 217 236 238 248 247 222 227 227 233 234 232 242 256 249 242 229 242 244 260 265 254 251 262 270 288 308
204 202 186 200 172 211 189 225 235 230 248 176 191 189 219 218 225 242 222 222 224 216 229 230 227 233 237 233 239 246 243 244 246 241 253 262 260 253 259 267 279 292 311 326
198 215 215 211 217 200 172 245 211 184 222 234 229 192 220 219 232 238 229 232 250 222 232 241 230 232 233 238 242 241 254 245 248 253 259 261 258 264 276 289 295 327 334 367
219 222 230 234 217 235 224 228 231 226 236 240 228 207 217 222 236 221 235 234 229 231 237 227 242 243 238 249 243 246 244 253 256 266 264 265 273 283 293 313 322 346 416 414
226 241 243 242 221 238 229 238 239 238 232 234 237 231 237 231 235 216 225 232 248 240 229 247 232 239 255 248 249 250 257 266 268 271 271 280 291 306 329 330 397 411 409 394
229 234 238 225 226 240 237 225 224 243 227 241 217 224 226 207 226 224 235 243 231 248 241 244 253 245 258 253 258 263 266 280 276 279 294 302 334 343 400 405 408 401 385 384
242 235 229 239 248 241 223 217 229 235 233 236 230 242 243 245 246 248 253 261 259 259 258 255 253 254 260 266 273 282 280 286 295 307 334 387 410 403 409 403 390 384 381 379
233 231 238 239 238 241 233 239 241 245 250 248 248 241 244 243 240 249 248 249 263 254 258 263 264 272 279 284 280 289 298 310 364 420 415 413 410 399 395 388 389 385 384 385
244 243 246 247 249 248 244 240 244 240 250 252 253 248 245 255 259 262 267 255 264 265 272 273 272 281 283 294 305 337 413 428 427 421 412 407 408 406 404 401 397 399 400 404

GFSNGP_2pvu_pres_033.txt.gz
Presure
210 187 210 207 198 178 186 198 186 220 224 179 187 187 239 224 227 270 235 229 221 214 213 221 220 225 253 213 226 214 218 213 219 213 237 216 214 216 222 197 191 191 190 193
221 209 177 194 185 206 174 197 184 213 216 185 190 192 190 231 221 222 276 260 225 220 211 202 205 211 204 214 229 204 203 204 209 210 212 215 217 216 215 212 208 193 193 193
212 219 206 209 189 182 177 189 191 197 177 206 217 206 180 232 223 217 212 212 210 213 207 206 205 207 209 200 195 194 194 202 204 205 226 225 225 223 209 193 195 193 192 197
193 212 202 179 202 209 185 180 193 187 212 224 218 214 229 178 186 226 214 210 210 207 209 208 209 207 206 203 200 199 201 255 255 202 199 217 217 214 195 196 198 200 199 201
215 207 199 198 194 181 179 197 185 195 199 219 199 209 209 197 200 179 241 234 214 215 214 209 213 204 203 205 208 198 201 202 199 188 189 187 185 190 195 201 202 204 206 205
214 203 173 194 200 182 198 185 86 185 180 178 187 203 211 209 200 244 194 242 233 226 214 212 210 206 209 212 206 204 202 200 198 205 205 205 203 203 207 210 205 206 210 219
201 184 201 196 206 205 168 208 134 203 186 192 212 215 197 196 197 205 202 251 243 234 226 222 217 226 221 215 215 212 212 210 212 213 211 212 213 211 212 213 216 220 218 224
209 206 192 202 185 194 172 170 186 178 183 214 210 217 219 202 216 193 211 218 233 249 244 239 237 232 226 221 221 219 200 220 215 215 213 198 204 218 212 218 215 219 205 210
198 211 181 200 199 207 184 203 203 196 191 209 225 210 213 227 222 201 226 230 211 204 253 246 248 243 238 233 230 228 219 216 200 194 217 208 218 216 216 221 221 208 233 239
206 210 204 195 201 200 208 200 193 190 190 183 228 212 222 205 196 216 205 212 223 241 210 239 235 239 236 233 232 232 231 188 184 195 187 221 220 211 212 204 211 211 202 223
190 193 198 208 192 204 201 202 203 196 171 195 192 218 202 207 216 204 234 222 244 203 231 243 239 237 239 235 229 228 228 231 225 216 216 212 219 234 226 229 234 221 225 235
197 178 205 154 203 208 198 197 194 194 218 192 209 191 209 208 202 209 216 215 229 218 217 244 236 232 236 231 233 236 229 222 213 215 237 240 239 232 237 222 230 236 238 237
208 210 199 209 215 207 203 204 218 184 209 202 195 190 207 205 212 222 211 222 213 233 247 246 236 238 243 242 246 246 253 234 213 241 239 230 230 227 229 232 229 238 251 248
209 206 208 215 212 207 183 222 221 215 202 198 206 199 218 201 210 216 221 215 225 240 246 243 242 248 246 237 229 241 240 219 250 241 229 223 223 233 232 227 229 245 241 240
215 215 211 215 218 227 229 231 227 206 196 198 207 214 204 218 212 217 211 215 221 258 242 217 220 251 218 232 228 226 225 222 241 222 228 224 233 231 227 235 246 250 250 243
214 213 215 223 229 229 230 211 217 199 203 183 209 219 215 201 204 198 215 227 224 239 245 218 238 211 237 226 225 206 215 230 232 226 240 247 228 229 239 240 257 249 264 249
222 222 226 224 202 204 204 192 215 206 206 214 209 209 213 201 209 222 223 228 229 263 245 190 251 237 228 217 234 228 234 234 235 242 233 225 241 241 243 252 252 252 250 253
228 229 226 204 227 203 222 214 210 211 214 187 193 214 209 201 210 219 224 192 226 243 229 215 214 203 227 228 227 220 223 231 226 237 238 235 252 252 252 252 247 257 257 260
225 229 231 211 215 172 213 209 208 202 194 215 215 209 200 208 199 230 225 224 243 241 224 223 207 231 244 228 224 223 238 223 234 237 254 252 252 250 249 250 258 256 264 273
223 213 208 219 210 203 202 213 209 198 215 203 191 181 172 220 226 222 241 230 247 242 227 230 235 218 224 222 229 240 225 238 242 248 249 250 252 256 256 255 260 267 268 272
211 212 212 212 211 211 197 208 215 214 207 210 211 204 226 222 231 242 239 240 228 218 224 224 219 227 226 228 248 239 240 240 245 252 251 252 259 252 262 261 270 267 279 293
218 215 214 215 220 219 213 199 199 202 187 212 215 227 234 238 235 226 238 217 224 217 236 227 226 232 240 245 242 240 246 254 250 238 264 257 259 262 267 268 278 291 339 360
220 220 217 193 199 200 195 201 213 217 227 237 233 228 227 234 245 240 234 217 238 235 242 239 242 235 241 255 246 251 249 257 272 265 260 265 270 269 272 292 309 373 435 429
213 215 214 224 228 228 230 241 244 226 223 227 216 210 229 239 236 236 238 242 255 251 256 244 241 241 236 251 250 263 274 264 258 269 267 275 276 291 307 430 444 434 405 399
222 225 226 227 225 227 227 229 236 239 241 250 246 250 239 233 237 249 248 239 239 243 253 241 255 254 251 249 242 267 260 271 273 281 285 293 315 439 439 422 408 394 389 397
235 227 235 235 235 239 246 250 251 250 251 250 251 253 254 254 246 235 241 242 251 246 251 254 251 242 241 260 264 275 276 284 288 293 318 442 427 415 403 411 421 412 403 397
247 250 253 247 222 239 248 250 251 257 256 254 260 258 239 253 264 257 252 236 248 255 252 240 270 280 271 276 282 288 292 308 322 432 421 414 428 441 429 413 401 391 492 491

GFSNGP_2pvu_pres_039.txt.gz
Presure
199 197 192 209 199 203 170 185 177 192 191 200 194 186 198 184 198 200 218 171 244 196 238 245 233 226 239 254 240 222 212 209 207 207 202 212 205 226 202 206 217 214 192 195
204 193 202 205 189 212 160 197 185 196 192 192 202 197 190 204 197 198 195 201 234 206 182 195 240 236 233 236 224 216 221 212 210 210 214 214 210 211 211 204 201 194 200 198
217 207 202 206 201 200 198 201 184 193 188 196 198 205 201 188 189 182 193 224 205 223 225 200 227 176 188 205 249 237 227 224 223 217 215 214 214 213 209 206 209 212 214 214
219 205 210 187 195 201 199 195 188 187 188 199 195 201 210 194 195 191 200 202 204 230 230 210 226 223 202 202 203 262 257 251 246 241 236 231 229 223 219 226 229 227 226 223
211 219 216 212 197 199 199 193 189 179 187 198 197 214 202 192 196 187 191 206 190 159 206 233 208 213 221 237 228 203 218 233 212 256 251 247 244 245 246 242 236 233 235 234
235 221 218 212 203 206 204 202 197 193 195 189 198 229 210 197 202 182 182 190 190 190 200 215 204 195 238 199 195 203 216 235 247 260 251 251 250 241 245 241 243 241 236 230
269 228 221 204 207 181 215 184 204 195 202 188 199 186 211 203 201 191 189 180 186 190 190 199 188 221 217 224 223 224 220 230 227 235 248 261 254 251 244 239 237 232 228 226
240 276 237 239 206 211 159 109 208 190 191 197 241 219 210 195 197 193 200 194 192 194 178 186 197 189 222 207 208 201 210 221 223 220 217 255 255 246 243 238 236 234 233 234
262 282 296 275 218 216 231 210 211 225 221 225 230 213 205 204 204 202 198 184 197 197 179 213 189 199 193 193 196 202 225 214 215 225 214 214 216 249 225 216 212 227 207 222
278 264 262 263 115 226 221 222 217 214 223 258 202 214 207 187 186 201 207 199 197 181 193 190 212 195 209 195 195 209 208 211 206 219 224 210 227 216 258 231 251 224 210 203
230 277 272 274 264 261 259 252 234 249 245 191 217 213 210 203 207 199 188 207 198 200 184 191 200 217 196 221 199 213 215 210 198 204 210 224 210 235 221 252 182 228 219 220
256 264 269 256 246 243 268 237 175 221 235 222 213 216 211 190 198 193 210 208 196 194 195 206 223 222 205 181 209 198 216 204 210 209 209 195 225 228 233 233 232 235 222 235
286 270 260 252 257 242 247 234 230 241 215 219 213 218 201 193 208 204 204 213 191 185 206 218 222 225 169 208 204 210 215 205 205 202 195 207 221 223 234 217 228 243 231 239
275 282 250 248 244 237 234 231 215 213 216 208 221 214 207 190 205 207 211 207 201 206 210 219 222 182 209 214 207 211 222 204 195 190 202 211 224 222 230 221 224 238 229 240
254 260 248 243 236 237 225 223 215 218 216 217 210 202 206 191 195 213 201 206 206 205 208 222 211 203 211 213 211 187 224 203 200 214 199 220 222 220 223 225 236 241 252 244
249 247 242 237 232 237 229 219 219 221 219 214 212 203 204 211 214 214 208 203 205 206 215 215 191 210 215 217 188 219 217 203 213 208 227 217 222 223 233 240 246 244 239 240
233 241 236 243 234 235 232 222 225 224 224 214 212 213 212 202 204 208 207 211 216 219 180 202 217 212 220 181 218 218 207 198 211 218 222 225 219 242 237 247 241 226 236 240
236 245 234 245 236 231 230 222 225 225 223 221 221 214 216 218 218 214 219 225 222 225 207 221 204 221 179 218 204 206 211 216 219 226 225 222 245 236 247 246 232 239 240 237
237 180 238 235 238 231 226 222 222 223 225 230 226 225 226 223 218 221 221 174 225 216 217 221 193 219 216 193 203 212 217 224 226 220 217 239 235 246 242 228 244 238 239 247
236 237 236 231 228 227 226 230 230 226 222 220 220 221 222 222 221 220 219 216 218 218 221 223 217 203 219 221 217 217 228 222 220 201 234 244 249 253 244 246 239 235 243 244
236 236 236 232 227 225 225 229 230 222 221 219 219 221 226 221 215 217 220 222 217 228 232 215 225 226 216 209 229 227 217 214 240 238 255 251 244 250 247 239 242 242 253 253
237 235 229 228 228 229 229 228 227 225 224 225 223 221 217 221 225 230 230 235 228 228 230 230 218 219 230 232 227 221 235 241 233 257 248 252 241 254 243 243 253 257 274 273
227 229 231 233 234 238 239 236 229 226 226 226 228 230 227 227 237 243 234 235 235 223 225 230 224 231 222 238 239 244 244 244 254 257 246 244 245 253 259 268 276 268 268 277
236 236 238 240 242 243 244 245 247 247 240 237 237 237 237 237 236 232 229 231 230 230 230 219 212 239 240 248 250 248 260 255 260 251 252 260 258 269 279 267 274 278 289 295
231 232 229 233 231 231 231 227 226 227 231 235 228 223 230 230 234 228 228 224 221 238 241 241 242 247 258 255 260 261 253 253 260 262 262 273 273 274 279 290 300 307 352 442
243 243 241 241 239 228 225 227 226 224 224 227 232 238 238 233 235 235 242 247 251 249 252 261 265 261 252 262 273 269 266 266 267 274 280 281 287 297 303 321 443 440 453 470
239 239 238 229 231 229 228 234 236 234 231 230 240 240 251 261 263 257 256 263 260 258 255 279 284 276 267 266 266 273 281 284 282 286 296 302 316 414 453 479 482 474 464 450